When you browse on this site, cookies collect data to enhance your experience and personalize the content and advertising you see.
Visit our Privacy Policy to learn more. By continuing to use the site, you agree to this use of cookies and data.
  • In Spain
  • List of Countries
  • For 7 days
  • Water Temperature
  • Satellite Maps
  • Weather Map
  • Weather Widgets
  • user-avatar
    Login

    Hourly Weather Solden

    Today, 22 February, Friday

    Time Temperature Precipitation Wind Pressure Humidity
    00:00 -8°C° 0 mm 3 mps 585 mmHg 81%
    01:00 -8°C° 0 mm 3 mps 585 mmHg 81%
    02:00 -8°C° 0 mm 3 mps 585 mmHg 81%
    03:00 -8°C° 0 mm 3 mps 585 mmHg 80%
    04:00 -8°C° 0 mm 3 mps 584 mmHg 80%
    05:00 -8°C° 0 mm 3 mps 584 mmHg 81%
    06:00 -8°C° 0 mm 3 mps 584 mmHg 82%
    07:00 -8°C° 0 mm 3 mps 585 mmHg 82%
    08:00 -6°C° 0.1 mm 3 mps 585 mmHg 80%
    09:00 -4°C° 0.1 mm 3 mps 586 mmHg 78%
    10:00 -1°C° 0.1 mm 3 mps 587 mmHg 76%
    11:00 -1°C° 0 mm 3 mps 587 mmHg 75%
    12:00 0°C° 0 mm 3 mps 588 mmHg 74%
    13:00 +1°C° 0 mm 3 mps 588 mmHg 73%
    14:00 0°C° 0 mm 3 mps 588 mmHg 73%
    15:00 0°C° 0 mm 3 mps 588 mmHg 73%
    16:00 -1°C° 0 mm 3 mps 588 mmHg 72%
    17:00 -2°C° 0 mm 3 mps 587 mmHg 76%
    18:00 -5°C° 0 mm 3 mps 587 mmHg 79%
    19:00 -7°C° 0 mm 3 mps 586 mmHg 82%
    20:00 -7°C° 0 mm 3 mps 586 mmHg 82%
    21:00 -8°C° 0 mm 3 mps 587 mmHg 82%
    22:00 -9°C° 0 mm 3 mps 587 mmHg 81%
    23:00 -8°C° 0 mm 2 mps 587 mmHg 78%

    Tomorrow, 23 February, Saturday

    Time Temperature Precipitation Wind Pressure Humidity
    00:00 -8°C° 0 mm 2 mps 587 mmHg 75%
    01:00 -8°C° 0 mm 2 mps 587 mmHg 72%
    02:00 -8°C° 0 mm 2 mps 587 mmHg 68%
    03:00 -8°C° 0 mm 2 mps 586 mmHg 63%
    04:00 -8°C° 0 mm 2 mps 586 mmHg 58%
    05:00 -10°C° 0 mm 3 mps 586 mmHg 54%
    06:00 -10°C° 0 mm 3 mps 586 mmHg 49%
    07:00 -10°C° 0 mm 3 mps 587 mmHg 44%
    08:00 -7°C° 0 mm 2 mps 588 mmHg 45%
    09:00 -5°C° 0 mm 2 mps 589 mmHg 45%
    10:00 -2°C° 0 mm 2 mps 590 mmHg 46%
    11:00 -1°C° 0 mm 2 mps 590 mmHg 46%
    12:00 +1°C° 0 mm 2 mps 591 mmHg 47%
    13:00 +2°C° 0 mm 2 mps 591 mmHg 47%
    14:00 +2°C° 0 mm 2 mps 591 mmHg 50%
    15:00 +2°C° 0 mm 1 mps 590 mmHg 52%
    16:00 +2°C° 0 mm 1 mps 590 mmHg 55%
    17:00 -2°C° 0 mm 2 mps 589 mmHg 56%
    18:00 -4°C° 0 mm 2 mps 589 mmHg 58%
    19:00 -6°C° 0 mm 2 mps 588 mmHg 60%
    20:00 -6°C° 0 mm 2 mps 588 mmHg 58%
    21:00 -6°C° 0 mm 2 mps 588 mmHg 56%
    22:00 -7°C° 0 mm 2 mps 588 mmHg 54%
    23:00 -6°C° 0 mm 1 mps 588 mmHg 54%

    Day after tomorrow, 24 February, Sunday

    Time Temperature Precipitation Wind Pressure Humidity
    00:00 -6°C° 0 mm 1 mps 588 mmHg 55%
    01:00 -6°C° 0 mm 1 mps 588 mmHg 55%
    02:00 -6°C° 0 mm 1 mps 588 mmHg 55%
    03:00 -6°C° 0 mm 1 mps 588 mmHg 56%
    04:00 -6°C° 0 mm 1 mps 588 mmHg 56%
    05:00 -7°C° 0 mm 2 mps 588 mmHg 56%
    06:00 -7°C° 0 mm 2 mps 588 mmHg 57%
    07:00 -7°C° 0 mm 2 mps 588 mmHg 57%
    08:00 -3°C° 0 mm 1 mps 589 mmHg 57%
    09:00 -1°C° 0 mm 1 mps 590 mmHg 57%
    10:00 +1°C° 0 mm 1 mps 591 mmHg 57%
    11:00 +2°C° 0 mm 1 mps 592 mmHg 57%
    12:00 +3°C° 0 mm 1 mps 592 mmHg 58%
    13:00 +4°C° 0 mm 1 mps 592 mmHg 59%
    14:00 +4°C° 0 mm 1 mps 592 mmHg 60%
    15:00 +4°C° 0 mm 1 mps 592 mmHg 61%
    16:00 +3°C° 0 mm 1 mps 592 mmHg 63%
    17:00 +2°C° 0 mm 1 mps 591 mmHg 66%
    18:00 0°C° 0 mm 1 mps 591 mmHg 69%
    19:00 -4°C° 0 mm 2 mps 590 mmHg 72%
    20:00 -4°C° 0 mm 2 mps 590 mmHg 72%
    21:00 -2°C° 0 mm 1 mps 590 mmHg 71%
    22:00 -3°C° 0 mm 1 mps 591 mmHg 70%
    23:00 -3°C° 0 mm 1 mps 591 mmHg 70%

    25 February, Monday

    Time Temperature Precipitation Wind Pressure Humidity
    00:00 -3°C° 0 mm 1 mps 590 mmHg 69%
    01:00 -3°C° 0 mm 1 mps 590 mmHg 69%
    02:00 -3°C° 0 mm 1 mps 590 mmHg 68%
    03:00 -3°C° 0 mm 1 mps 590 mmHg 68%
    04:00 -3°C° 0 mm 1 mps 590 mmHg 67%
    05:00 -5°C° 0 mm 2 mps 590 mmHg 67%
    06:00 -5°C° 0 mm 2 mps 590 mmHg 67%
    07:00 -5°C° 0 mm 2 mps 590 mmHg 67%
    08:00 -1°C° 0 mm 1 mps 591 mmHg 65%
    09:00 0°C° 0 mm 1 mps 591 mmHg 64%
    10:00 +2°C° 0 mm 1 mps 592 mmHg 62%
    11:00 +3°C° 0 mm 1 mps 592 mmHg 61%
    12:00 +4°C° 0 mm 1 mps 593 mmHg 59%
    13:00 +5°C° 0 mm 1 mps 593 mmHg 57%
    14:00 +5°C° 0 mm 1 mps 592 mmHg 57%
    15:00 +5°C° 0 mm 1 mps 592 mmHg 58%
    16:00 +4°C° 0 mm 1 mps 592 mmHg 59%
    17:00 +3°C° 0 mm 1 mps 591 mmHg 62%
    18:00 +1°C° 0 mm 1 mps 591 mmHg 65%
    19:00 -1°C° 0 mm 1 mps 590 mmHg 68%
    20:00 -1°C° 0 mm 1 mps 590 mmHg 67%
    21:00 -1°C° 0 mm 1 mps 590 mmHg 66%
    22:00 -4°C° 0 mm 2 mps 590 mmHg 65%
    23:00 -4°C° 0 mm 2 mps 590 mmHg 63%

    26 February, Tuesday

    Time Temperature Precipitation Wind Pressure Humidity
    00:00 -4°C° 0 mm 2 mps 589 mmHg 60%
    01:00 -4°C° 0 mm 2 mps 589 mmHg 58%
    02:00 -4°C° 0 mm 2 mps 589 mmHg 57%
    03:00 -4°C° 0 mm 2 mps 589 mmHg 55%
    04:00 -4°C° 0 mm 2 mps 589 mmHg 54%
    05:00 -4°C° 0 mm 2 mps 588 mmHg 52%
    06:00 -5°C° 0 mm 2 mps 588 mmHg 50%
    07:00 -5°C° 0 mm 2 mps 588 mmHg 48%
    08:00 -3°C° 0 mm 2 mps 589 mmHg 47%
    09:00 -1°C° 0 mm 2 mps 590 mmHg 47%
    10:00 +2°C° 0 mm 2 mps 591 mmHg 46%
    11:00 +4°C° 0 mm 2 mps 591 mmHg 46%
    12:00 +5°C° 0 mm 2 mps 591 mmHg 46%
    13:00 +6°C° 0 mm 2 mps 592 mmHg 46%
    14:00 +6°C° 0 mm 2 mps 591 mmHg 49%
    15:00 +5°C° 0 mm 2 mps 591 mmHg 52%
    16:00 +5°C° 0 mm 2 mps 591 mmHg 55%
    17:00 +3°C° 0 mm 2 mps 590 mmHg 58%
    18:00 +1°C° 0 mm 2 mps 589 mmHg 61%
    19:00 -2°C° 0 mm 2 mps 588 mmHg 63%
    20:00 -2°C° 0 mm 2 mps 588 mmHg 60%
    21:00 -3°C° 0 mm 2 mps 588 mmHg 56%
    22:00 -3°C° 0 mm 2 mps 588 mmHg 53%
    23:00 -3°C° 0 mm 2 mps 588 mmHg 52%

    27 February, Wednesday

    Time Temperature Precipitation Wind Pressure Humidity
    00:00 -3°C° 0 mm 2 mps 588 mmHg 51%
    01:00 -3°C° 0 mm 2 mps 587 mmHg 50%
    02:00 -3°C° 0 mm 2 mps 587 mmHg 51%
    03:00 -3°C° 0 mm 2 mps 587 mmHg 52%
    04:00 -3°C° 0 mm 2 mps 586 mmHg 52%
    05:00 -3°C° 0 mm 2 mps 586 mmHg 53%
    06:00 -3°C° 0 mm 2 mps 586 mmHg 54%
    07:00 -3°C° 0 mm 2 mps 586 mmHg 55%
    08:00 -1°C° 0 mm 2 mps 587 mmHg 55%
    09:00 +3°C° 0 mm 1 mps 588 mmHg 54%
    10:00 +5°C° 0 mm 1 mps 589 mmHg 54%
    11:00 +6°C° 0 mm 1 mps 589 mmHg 54%
    12:00 +6°C° 0 mm 0 mps 590 mmHg 53%
    13:00 +7°C° 0 mm 0 mps 590 mmHg 53%
    14:00 +6°C° 0 mm 0 mps 589 mmHg 54%
    15:00 +6°C° 0 mm 0 mps 589 mmHg 55%
    16:00 +6°C° 0 mm 0 mps 589 mmHg 57%
    17:00 +5°C° 0 mm 1 mps 588 mmHg 60%
    18:00 +3°C° 0 mm 1 mps 587 mmHg 63%
    19:00 +1°C° 0 mm 1 mps 586 mmHg 66%
    20:00 +1°C° 0 mm 1 mps 586 mmHg 66%
    21:00 0°C° 0 mm 1 mps 586 mmHg 66%
    22:00 0°C° 0 mm 1 mps 586 mmHg 65%
    23:00 0°C° 0 mm 1 mps 586 mmHg 64%
    Show more